User: anonymous   Login
Location: Unspecified
(0.0000°N, 0.0000°E)
Time: 13:41:11
(UTC+00:00)
Language:

SR - Orbit

View from above orbital plane
View from above orbital plane
View from above satellite
View from above satellite

Ground track
Ground track

The orbit data is extracted from the following two-line orbital elements,

1    46U 60007B   19051.93982540 +.00000005 +00000-0 +24169-4 0  9990
2    46 066.6892 270.1871 0204712 132.1753 229.6945 14.49205144069199
Epoch (UTC): 20 February 2019 22:33:20
Eccentricity: 0.0204712
inclination: 66.6892°
perigee height: 583 km
apogee height: 874 km
right ascension of ascending node: 270.1871°
argument of perigee: 132.1753°
revolutions per day: 14.49205144
mean anomaly at epoch: 229.6945°
orbit number at epoch: 6919

The dashed part of the orbit path shows where the satellite is in the earth's shadow,  

DLR